TimeCET,TemperatureF,Dew PointF,Humidity,Sea Level PressureIn,VisibilityMPH,Wind Direction,Wind SpeedMPH,Gust SpeedMPH,PrecipitationIn,Events,Conditions,WindDirDegrees,DateUTC
12:50 AM,71.6,64.4,78,29.53,6.2,WSW,9.2,-,N/A,,Mostly Cloudy,240,2012-10-27 22:50:00
1:50 AM,71.6,64.4,78,29.56,6.2,SW,4.6,-,N/A,,Mostly Cloudy,230,2012-10-27 23:50:00
2:50 AM,73.4,64.4,73,29.56,6.2,WSW,10.4,-,N/A,,Mostly Cloudy,240,2012-10-28 00:50:00
2:50 AM,71.6,59.0,64,29.53,6.2,WSW,8.1,-,N/A,,Mostly Cloudy,240,2012-10-28 01:50:00
3:50 AM,69.8,59.0,68,29.53,6.2,Variable,1.2,-,N/A,,Mostly Cloudy,0,2012-10-28 02:50:00
4:50 AM,64.4,57.2,77,29.53,6.2,Variable,2.3,-,N/A,,Mostly Cloudy,0,2012-10-28 03:50:00
5:50 AM,60.8,55.4,82,29.53,6.2,East,4.6,-,N/A,,Partly Cloudy,90,2012-10-28 04:50:00
6:50 AM,60.8,57.2,88,29.56,6.2,East,4.6,-,N/A,,Partly Cloudy,80,2012-10-28 05:50:00
7:50 AM,62.6,59.0,88,29.56,6.2,East,4.6,-,N/A,,Scattered Clouds,80,2012-10-28 06:50:00
8:50 AM,68.0,62.6,83,29.56,6.2,East,5.8,-,N/A,,Scattered Clouds,80,2012-10-28 07:50:00
9:50 AM,75.2,62.6,65,29.59,6.2,Variable,3.5,-,N/A,,Scattered Clouds,0,2012-10-28 08:50:00
10:50 AM,75.2,59.0,57,29.56,6.2,West,5.8,-,N/A,,Partly Cloudy,270,2012-10-28 09:50:00
11:50 AM,75.2,62.6,65,29.56,6.2,West,8.1,-,N/A,,Partly Cloudy,280,2012-10-28 10:50:00
12:50 PM,75.2,60.8,61,29.56,6.2,West,9.2,-,N/A,,Partly Cloudy,270,2012-10-28 11:50:00
1:50 PM,71.6,60.8,69,29.56,5.0,West,17.3,-,N/A,Rain,Rain Showers,270,2012-10-28 12:50:00
2:00 PM,69.8,62.6,78,29.56,6.2,West,28.8,-,N/A,,Mostly Cloudy,270,2012-10-28 13:00:00
2:50 PM,68.0,60.8,78,29.59,6.2,West,26.5,-,N/A,,Mostly Cloudy,280,2012-10-28 13:50:00
3:05 PM,66.2,59.0,78,29.59,3.1,WNW,25.3,-,N/A,Rain,Rain,290,2012-10-28 14:05:00
3:15 PM,66.2,60.8,83,29.59,5.0,WNW,20.7,-,N/A,Rain,Light Rain,290,2012-10-28 14:15:00
3:50 PM,66.2,60.8,83,29.62,5.6,WNW,16.1,-,N/A,,Mostly Cloudy,290,2012-10-28 14:50:00
4:10 PM,64.4,60.8,88,29.59,5.0,WNW,23.0,36.8,N/A,,Drizzle,290,2012-10-28 15:10:00
4:50 PM,64.4,59.0,83,29.62,5.0,WNW,19.6,-,N/A,,Drizzle,290,2012-10-28 15:50:00
5:20 PM,64.4,57.2,77,29.65,4.3,WNW,13.8,-,N/A,Rain,Rain,290,2012-10-28 16:20:00
5:50 PM,64.4,59.0,83,29.65,5.6,WNW,10.4,-,N/A,,Light Drizzle,290,2012-10-28 16:50:00
6:05 PM,62.6,57.2,82,29.68,6.2,WNW,13.8,-,N/A,,Mostly Cloudy,290,2012-10-28 17:05:00
6:50 PM,64.4,57.2,77,29.68,6.2,West,13.8,-,N/A,Rain,Light Rain,260,2012-10-28 17:50:00
7:35 PM,60.8,55.4,82,29.71,6.2,WNW,13.8,-,N/A,Rain,Rain,290,2012-10-28 18:35:00
7:50 PM,60.8,55.4,82,29.68,5.0,WNW,16.1,-,N/A,Rain,Light Rain,300,2012-10-28 18:50:00
8:50 PM,60.8,53.6,77,29.74,6.2,WNW,17.3,-,N/A,,Mostly Cloudy,290,2012-10-28 19:50:00
9:50 PM,62.6,50.0,63,29.74,6.2,West,18.4,-,N/A,,Mostly Cloudy,280,2012-10-28 20:50:00
10:50 PM,62.6,48.2,59,29.74,6.2,West,13.8,-,N/A,,Scattered Clouds,270,2012-10-28 21:50:00